星链-30267 (STARLINK-30267 )

导读

STARLINK-30267是美国太空探索技术公司星链星座中的一颗卫星,于2023年8月22日发射升空,属于星链互联网卫星项目的组网卫星。星链项目旨在构建全球卫星互联网星座,该卫星承担为全球范围内偏远地区、海上及空中等场景提供低延迟宽带互联网接入服务的任务,是星链大规模组网建设的组成部分。

Basic Information
目录编号:
57663
目录名称:
STARLINK-30267
国际标识:
2023-124A
轨道中心:
EARTH
卫星名称:
星链-30267
卫星全名:
星链-30267 (STARLINK-30267 )
卫星状态:
在轨 (已飞行1031 天)
发射日期:
2023-08-22 UTC
国别 :
美国 (US)
星等 :
--
Orbit Information
数据来源 国际轨道数据 AOE轨道数据
星历时间 2026-06-18T12:51:57+0800
9小时前
查看轨道信息
2026-06-14T03:00:00+0800
4天前
查看轨道信息
半长轴 6853.342km 6853.342km
偏心率 0.0001333 0.000125
轨道倾角 53.160° 53.156°
近地点辐角 105.439° 79.376°
升交点赤经 100.151° 120.642°
平近点角 254.676° 87.959°
近地点 474.291km 474.348km
远地点 476.119km 476.062km
周期 94.105分钟 94.105分钟
每日圈数 15.302037 15.302034
Detailed Information
固有亮度:
5
最大亮度:
0.3
卫星平台:
Starlink v2.0 mini
覆盖范围:
全球
运营商:
太空探索技术公司
运营商所在国:
美国
制造商(研发单位):
太空探索技术公司
制造商所在国:
美国
使用方式:
暂无
Satellite Introduction
星链(Starlink)计划是由太空探索技术公司(SpaceX)提出的一个巨型低轨卫星互联网星座项目,计划在2019年至2024年间在太空搭建由约1.2万颗卫星组成的“星链”网络,其中1584颗将部署在地球上空550千米处的近地轨道,并从2020年开始工作。该卫星仍在工作。
2D Orbit Map
3D Orbit Map
Orbit Altitude Analysis Chart
Orbit Inclination Analysis Chart
Orbit Comprehensive Analysis Chart
View Comprehensive Chart